Year,Month,Day,Hour,Minute,Value (Times are PST for temperature in C)
2016,03,08,00,00,4.10
2016,03,08,00,01,4.10
2016,03,08,00,02,4.10
2016,03,08,00,03,4.10
2016,03,08,00,04,4.10
2016,03,08,00,05,4.10
2016,03,08,00,06,4.10
2016,03,08,00,07,4.10
2016,03,08,00,08,4.00
2016,03,08,00,09,4.00
2016,03,08,00,10,4.00
2016,03,08,00,11,4.00
2016,03,08,00,12,4.00
2016,03,08,00,13,4.00
2016,03,08,00,14,4.00
2016,03,08,00,15,4.00
2016,03,08,00,16,4.00
2016,03,08,00,17,4.00
2016,03,08,00,18,3.90
2016,03,08,00,19,3.90
2016,03,08,00,20,3.90
2016,03,08,00,21,3.90
2016,03,08,00,22,3.90
2016,03,08,00,23,3.90
2016,03,08,00,24,3.80
2016,03,08,00,25,3.80
2016,03,08,00,26,3.80
2016,03,08,00,27,3.80
2016,03,08,00,28,3.80
2016,03,08,00,29,3.80
2016,03,08,00,30,3.80
2016,03,08,00,31,3.80
2016,03,08,00,32,3.80
2016,03,08,00,33,3.80
2016,03,08,00,34,3.80
2016,03,08,00,35,3.80
2016,03,08,00,36,3.80
2016,03,08,00,37,3.80
2016,03,08,00,38,3.80
2016,03,08,00,39,3.80
2016,03,08,00,40,3.80
2016,03,08,00,41,3.80
2016,03,08,00,42,3.70
2016,03,08,00,43,3.70
2016,03,08,00,44,3.70
2016,03,08,00,45,3.70
2016,03,08,00,46,3.70
2016,03,08,00,47,3.70
2016,03,08,00,48,3.70
2016,03,08,00,49,3.70
2016,03,08,00,50,3.70
2016,03,08,00,51,3.70
2016,03,08,00,52,3.70
2016,03,08,00,53,3.70
2016,03,08,00,54,3.70
2016,03,08,00,55,3.70
2016,03,08,00,56,3.70
2016,03,08,00,57,3.70
2016,03,08,00,58,3.70
2016,03,08,00,59,3.70
2016,03,08,01,00,3.60
2016,03,08,01,01,3.60
2016,03,08,01,02,3.60
2016,03,08,01,03,3.60
2016,03,08,01,04,3.60
2016,03,08,01,05,3.60
2016,03,08,01,06,3.60
2016,03,08,01,07,3.60
2016,03,08,01,08,3.50
2016,03,08,01,09,3.50
2016,03,08,01,10,3.50
2016,03,08,01,11,3.50
2016,03,08,01,12,3.40
2016,03,08,01,13,3.40
2016,03,08,01,14,3.40
2016,03,08,01,15,3.30
2016,03,08,01,16,3.30
2016,03,08,01,17,3.30
2016,03,08,01,18,3.30
2016,03,08,01,19,3.30
2016,03,08,01,20,3.30
2016,03,08,01,21,3.20
2016,03,08,01,22,3.20
2016,03,08,01,23,3.20
2016,03,08,01,24,3.20
2016,03,08,01,25,3.20
2016,03,08,01,26,3.20
2016,03,08,01,27,3.20
2016,03,08,01,28,3.20
2016,03,08,01,29,3.20
2016,03,08,01,30,3.20
2016,03,08,01,31,3.20
2016,03,08,01,32,3.20
2016,03,08,01,33,3.20
2016,03,08,01,34,3.20
2016,03,08,01,35,3.20
2016,03,08,01,36,3.20
2016,03,08,01,37,3.20
2016,03,08,01,38,3.20
2016,03,08,01,39,3.20
2016,03,08,01,40,3.20
2016,03,08,01,41,3.20
2016,03,08,01,42,3.20
2016,03,08,01,43,3.20
2016,03,08,01,44,3.20
2016,03,08,01,45,3.20
2016,03,08,01,46,3.10
2016,03,08,01,47,3.10
2016,03,08,01,48,3.10
2016,03,08,01,49,3.20
2016,03,08,01,50,3.20
2016,03,08,01,51,3.20
2016,03,08,01,52,3.20
2016,03,08,01,53,3.20
2016,03,08,01,54,3.10
2016,03,08,01,55,3.10
2016,03,08,01,56,3.10
2016,03,08,01,57,3.10
2016,03,08,01,58,3.10
2016,03,08,01,59,3.10
2016,03,08,02,00,3.10
2016,03,08,02,01,3.00
2016,03,08,02,02,3.00
2016,03,08,02,03,3.00
2016,03,08,02,04,3.00
2016,03,08,02,05,3.00
2016,03,08,02,06,3.00
2016,03,08,02,07,2.90
2016,03,08,02,08,2.90
2016,03,08,02,09,2.90
2016,03,08,02,10,2.90
2016,03,08,02,11,3.00
2016,03,08,02,12,3.00
2016,03,08,02,13,3.00
2016,03,08,02,14,3.00
2016,03,08,02,15,3.00
2016,03,08,02,16,3.00
2016,03,08,02,17,3.00
2016,03,08,02,18,3.00
2016,03,08,02,19,3.00
2016,03,08,02,20,3.00
2016,03,08,02,21,2.90
2016,03,08,02,22,2.90
2016,03,08,02,23,2.90
2016,03,08,02,24,2.90
2016,03,08,02,25,2.90
2016,03,08,02,26,3.00
2016,03,08,02,27,2.90
2016,03,08,02,28,2.90
2016,03,08,02,29,2.90
2016,03,08,02,30,2.90
2016,03,08,02,31,2.90
2016,03,08,02,32,2.90
2016,03,08,02,33,2.80
2016,03,08,02,34,2.80
2016,03,08,02,35,2.80
2016,03,08,02,36,2.80
2016,03,08,02,37,2.80
2016,03,08,02,38,2.80
2016,03,08,02,39,2.80
2016,03,08,02,40,2.70
2016,03,08,02,41,2.70
2016,03,08,02,42,2.70
2016,03,08,02,43,2.70
2016,03,08,02,44,2.70
2016,03,08,02,45,2.70
2016,03,08,02,46,2.60
2016,03,08,02,47,2.60
2016,03,08,02,48,2.60
2016,03,08,02,49,2.60
2016,03,08,02,50,2.60
2016,03,08,02,51,2.50
2016,03,08,02,52,2.50
2016,03,08,02,53,2.50
2016,03,08,02,54,2.50
2016,03,08,02,55,2.50
2016,03,08,02,56,2.50
2016,03,08,02,57,2.50
2016,03,08,02,58,2.50
2016,03,08,02,59,2.50
2016,03,08,03,00,2.50
2016,03,08,03,01,2.50
2016,03,08,03,02,2.50
2016,03,08,03,03,2.50
2016,03,08,03,05,2.40
2016,03,08,03,06,2.40
2016,03,08,03,07,2.40
2016,03,08,03,08,2.40
2016,03,08,03,09,2.40
2016,03,08,03,10,2.40
2016,03,08,03,11,2.40
2016,03,08,03,12,2.50
2016,03,08,03,13,2.50
2016,03,08,03,14,2.50
2016,03,08,03,15,2.50
2016,03,08,03,16,2.50
2016,03,08,03,17,2.50
2016,03,08,03,18,2.50
2016,03,08,03,19,2.50
2016,03,08,03,20,2.50
2016,03,08,03,21,2.60
2016,03,08,03,22,2.60
2016,03,08,03,23,2.60
2016,03,08,03,24,2.60
2016,03,08,03,25,2.60
2016,03,08,03,26,2.50
2016,03,08,03,27,2.50
2016,03,08,03,28,2.50
2016,03,08,03,29,2.50
2016,03,08,03,30,2.50
2016,03,08,03,31,2.50
2016,03,08,03,32,2.50
2016,03,08,03,33,2.50
2016,03,08,03,34,2.40
2016,03,08,03,35,2.40
2016,03,08,03,36,2.40
2016,03,08,03,37,2.40
2016,03,08,03,38,2.40
2016,03,08,03,39,2.40
2016,03,08,03,40,2.40
2016,03,08,03,41,2.40
2016,03,08,03,42,2.30
2016,03,08,03,43,2.30
2016,03,08,03,44,2.30
2016,03,08,03,45,2.30
2016,03,08,03,46,2.30
2016,03,08,03,47,2.30
2016,03,08,03,48,2.20
2016,03,08,03,49,2.20
2016,03,08,03,50,2.20
2016,03,08,03,51,2.30
2016,03,08,03,52,2.30
2016,03,08,03,53,2.30
2016,03,08,03,54,2.30
2016,03,08,03,55,2.30
2016,03,08,03,56,2.30
2016,03,08,03,57,2.30
2016,03,08,03,58,2.30
2016,03,08,03,59,2.30
2016,03,08,04,00,2.30
2016,03,08,04,01,2.30
2016,03,08,04,02,2.30
2016,03,08,04,03,2.30
2016,03,08,04,04,2.30
2016,03,08,04,05,2.30
2016,03,08,04,06,2.30
2016,03,08,04,07,2.30
2016,03,08,04,08,2.30
2016,03,08,04,09,2.30
2016,03,08,04,10,2.30
2016,03,08,04,11,2.30
2016,03,08,04,12,2.30
2016,03,08,04,13,2.30
2016,03,08,04,14,2.30
2016,03,08,04,15,2.30
2016,03,08,04,16,2.30
2016,03,08,04,17,2.30
2016,03,08,04,18,2.30
2016,03,08,04,19,2.30
2016,03,08,04,20,2.30
2016,03,08,04,21,2.30
2016,03,08,04,22,2.30
2016,03,08,04,23,2.30
2016,03,08,04,24,2.30
2016,03,08,04,25,2.30
2016,03,08,04,26,2.30
2016,03,08,04,27,2.30
2016,03,08,04,28,2.30
2016,03,08,04,29,2.30
2016,03,08,04,30,2.20
2016,03,08,04,31,2.20
2016,03,08,04,32,2.20
2016,03,08,04,33,2.20
2016,03,08,04,34,2.20
2016,03,08,04,35,2.20
2016,03,08,04,36,2.20
2016,03,08,04,37,2.20
2016,03,08,04,38,2.20
2016,03,08,04,39,2.20
2016,03,08,04,40,2.20
2016,03,08,04,41,2.20
2016,03,08,04,42,2.20
2016,03,08,04,43,2.20
2016,03,08,04,44,2.20
2016,03,08,04,45,2.10
2016,03,08,04,46,2.10
2016,03,08,04,47,2.10
2016,03,08,04,48,2.10
2016,03,08,04,49,2.10
2016,03,08,04,50,2.10
2016,03,08,04,51,2.10
2016,03,08,04,52,2.10
2016,03,08,04,53,2.00
2016,03,08,04,54,2.00
2016,03,08,04,55,2.00
2016,03,08,04,56,2.10
2016,03,08,04,57,2.10
2016,03,08,04,58,2.10
2016,03,08,04,59,2.10
2016,03,08,05,00,2.00
2016,03,08,05,01,2.00
2016,03,08,05,02,2.00
2016,03,08,05,03,2.00
2016,03,08,05,04,2.00
2016,03,08,05,05,2.00
2016,03,08,05,06,2.00
2016,03,08,05,07,2.10
2016,03,08,05,08,2.10
2016,03,08,05,09,2.10
2016,03,08,05,10,2.10
2016,03,08,05,11,2.10
2016,03,08,05,12,2.10
2016,03,08,05,13,2.10
2016,03,08,05,14,2.10
2016,03,08,05,15,2.10
2016,03,08,05,16,2.10
2016,03,08,05,17,2.00
2016,03,08,05,18,2.00
2016,03,08,05,19,2.00
2016,03,08,05,20,2.00
2016,03,08,05,21,1.90
2016,03,08,05,22,1.90
2016,03,08,05,23,1.90
2016,03,08,05,24,1.90
2016,03,08,05,25,1.90
2016,03,08,05,26,1.90
2016,03,08,05,27,1.90
2016,03,08,05,28,1.80
2016,03,08,05,29,1.80
2016,03,08,05,30,1.80
2016,03,08,05,31,1.80
2016,03,08,05,32,1.80
2016,03,08,05,33,1.80
2016,03,08,05,34,1.80
2016,03,08,05,35,1.90
2016,03,08,05,36,1.90
2016,03,08,05,37,1.90
2016,03,08,05,38,1.90
2016,03,08,05,39,1.90
2016,03,08,05,40,1.90
2016,03,08,05,41,1.90
2016,03,08,05,42,1.90
2016,03,08,05,43,1.90
2016,03,08,05,44,1.90
2016,03,08,05,45,1.90
2016,03,08,05,46,1.90
2016,03,08,05,47,1.90
2016,03,08,05,48,1.90
2016,03,08,05,49,1.90
2016,03,08,05,50,1.90
2016,03,08,05,51,2.00
2016,03,08,05,52,2.00
2016,03,08,05,53,2.00
2016,03,08,05,54,2.00
2016,03,08,05,55,2.00
2016,03,08,05,56,2.00
2016,03,08,05,57,2.00
2016,03,08,05,58,1.90
2016,03,08,05,59,1.90
2016,03,08,06,00,1.90
2016,03,08,06,01,1.90
2016,03,08,06,02,1.90
2016,03,08,06,03,1.90
2016,03,08,06,04,1.90
2016,03,08,06,05,1.90
2016,03,08,06,06,1.90
2016,03,08,06,07,1.90
2016,03,08,06,08,1.90
2016,03,08,06,09,1.90
2016,03,08,06,10,1.90
2016,03,08,06,11,1.90
2016,03,08,06,12,1.90
2016,03,08,06,13,1.90
2016,03,08,06,14,1.90
2016,03,08,06,15,1.90
2016,03,08,06,16,1.90
2016,03,08,06,17,1.90
2016,03,08,06,18,1.90
2016,03,08,06,19,1.90
2016,03,08,06,20,1.90
2016,03,08,06,21,1.90
2016,03,08,06,22,1.90
2016,03,08,06,23,1.90
2016,03,08,06,24,1.90
2016,03,08,06,25,2.00
2016,03,08,06,26,2.00
2016,03,08,06,27,2.00
2016,03,08,06,28,2.00
2016,03,08,06,29,2.00
2016,03,08,06,30,2.00
2016,03,08,06,31,2.00
2016,03,08,06,32,2.00
2016,03,08,06,33,2.00
2016,03,08,06,34,2.00
2016,03,08,06,35,2.00
2016,03,08,06,36,2.10
2016,03,08,06,37,2.10
2016,03,08,06,38,2.10
2016,03,08,06,39,2.10
2016,03,08,06,40,2.10
2016,03,08,06,41,2.10
2016,03,08,06,42,2.10
2016,03,08,06,43,2.10
2016,03,08,06,44,2.10
2016,03,08,06,45,2.10
2016,03,08,06,46,2.10
2016,03,08,06,47,2.10
2016,03,08,06,48,2.10
2016,03,08,06,49,2.10
2016,03,08,06,50,2.10
2016,03,08,06,51,2.10
2016,03,08,06,52,2.10
2016,03,08,06,53,2.20
2016,03,08,06,54,2.20
2016,03,08,06,55,2.20
2016,03,08,06,56,2.20
2016,03,08,06,57,2.20
2016,03,08,06,58,2.20
2016,03,08,06,59,2.20
2016,03,08,07,00,2.20
2016,03,08,07,01,2.20
2016,03,08,07,02,2.20
2016,03,08,07,03,2.20
2016,03,08,07,04,2.20
2016,03,08,07,05,2.30
2016,03,08,07,06,2.30
2016,03,08,07,07,2.30
2016,03,08,07,08,2.30
2016,03,08,07,09,2.30
2016,03,08,07,10,2.30
2016,03,08,07,11,2.40
2016,03,08,07,12,2.40
2016,03,08,07,13,2.50
2016,03,08,07,14,2.50
2016,03,08,07,15,2.60
2016,03,08,07,16,2.60
2016,03,08,07,17,2.70
2016,03,08,07,18,2.70
2016,03,08,07,19,2.80
2016,03,08,07,20,2.80
2016,03,08,07,21,2.80
2016,03,08,07,22,2.90
2016,03,08,07,23,2.90
2016,03,08,07,24,3.00
2016,03,08,07,25,3.00
2016,03,08,07,26,3.10
2016,03,08,07,27,3.10
2016,03,08,07,28,3.20
2016,03,08,07,29,3.20
2016,03,08,07,30,3.30
2016,03,08,07,31,3.30
2016,03,08,07,32,3.40
2016,03,08,07,33,3.40
2016,03,08,07,34,3.50
2016,03,08,07,35,3.50
2016,03,08,07,36,3.60
2016,03,08,07,37,3.60
2016,03,08,07,38,3.70
2016,03,08,07,39,3.70
2016,03,08,07,40,3.80
2016,03,08,07,41,3.80
2016,03,08,07,42,3.80
2016,03,08,07,43,3.90
2016,03,08,07,44,3.90
2016,03,08,07,45,3.90
2016,03,08,07,46,4.00
2016,03,08,07,47,4.00
2016,03,08,07,48,4.10
2016,03,08,07,49,4.10
2016,03,08,07,50,4.10
2016,03,08,07,51,4.20
2016,03,08,07,52,4.20
2016,03,08,07,53,4.20
2016,03,08,07,54,4.30
2016,03,08,07,55,4.30
2016,03,08,07,56,4.30
2016,03,08,07,57,4.40
2016,03,08,07,58,4.40
2016,03,08,07,59,4.50
2016,03,08,08,00,4.50
2016,03,08,08,01,4.60
2016,03,08,08,02,4.60
2016,03,08,08,03,4.70
2016,03,08,08,04,4.70
2016,03,08,08,05,4.70
2016,03,08,08,06,4.80
2016,03,08,08,07,4.80
2016,03,08,08,08,4.80
2016,03,08,08,09,4.80
2016,03,08,08,10,4.80
2016,03,08,08,11,4.90
2016,03,08,08,12,4.90
2016,03,08,08,13,4.90
2016,03,08,08,14,4.90
2016,03,08,08,15,5.00
2016,03,08,08,16,5.00
2016,03,08,08,17,5.00
2016,03,08,08,18,5.10
2016,03,08,08,19,5.10
2016,03,08,08,20,5.10
2016,03,08,08,21,5.10
2016,03,08,08,22,5.10
2016,03,08,08,23,5.20
2016,03,08,08,24,5.20
2016,03,08,08,25,5.20
2016,03,08,08,26,5.20
2016,03,08,08,27,5.20
2016,03,08,08,28,5.20
2016,03,08,08,29,5.20
2016,03,08,08,30,5.30
2016,03,08,08,31,5.30
2016,03,08,08,32,5.30
2016,03,08,08,33,5.30
2016,03,08,08,34,5.30
2016,03,08,08,35,5.40
2016,03,08,08,36,5.40
2016,03,08,08,37,5.40
2016,03,08,08,38,5.40
2016,03,08,08,39,5.50
2016,03,08,08,40,5.50
2016,03,08,08,41,5.50
2016,03,08,08,42,5.50
2016,03,08,08,43,5.60
2016,03,08,08,44,5.60
2016,03,08,08,45,5.60
2016,03,08,08,46,5.60
2016,03,08,08,47,5.60
2016,03,08,08,48,5.60
2016,03,08,08,49,5.70
2016,03,08,08,50,5.70
2016,03,08,08,51,5.70
2016,03,08,08,52,5.70
2016,03,08,08,53,5.70
2016,03,08,08,54,5.70
2016,03,08,08,55,5.70
2016,03,08,08,56,5.80
2016,03,08,08,57,5.80
2016,03,08,08,58,5.80
2016,03,08,08,59,5.80
2016,03,08,09,00,5.80
2016,03,08,09,01,5.90
2016,03,08,09,02,5.90
2016,03,08,09,03,5.90
2016,03,08,09,04,5.90
2016,03,08,09,05,5.90
2016,03,08,09,06,5.90
2016,03,08,09,07,6.00
2016,03,08,09,08,6.00
2016,03,08,09,09,6.00
2016,03,08,09,10,6.10
2016,03,08,09,11,6.10
2016,03,08,09,12,6.10
2016,03,08,09,13,6.10
2016,03,08,09,14,6.20
2016,03,08,09,15,6.20
2016,03,08,09,16,6.20
2016,03,08,09,17,6.20
2016,03,08,09,18,6.20
2016,03,08,09,19,6.30
2016,03,08,09,20,6.30
2016,03,08,09,21,6.30
2016,03,08,09,22,6.30
2016,03,08,09,23,6.30
2016,03,08,09,24,6.40
2016,03,08,09,25,6.40
2016,03,08,09,26,6.40
2016,03,08,09,27,6.40
2016,03,08,09,28,6.40
2016,03,08,09,29,6.40
2016,03,08,09,30,6.50
2016,03,08,09,31,6.50
2016,03,08,09,32,6.50
2016,03,08,09,33,6.60
2016,03,08,09,34,6.60
2016,03,08,09,35,6.60
2016,03,08,09,36,6.60
2016,03,08,09,37,6.60
2016,03,08,09,38,6.60
2016,03,08,09,39,6.60
2016,03,08,09,40,6.60
2016,03,08,09,41,6.60
2016,03,08,09,42,6.60
2016,03,08,09,43,6.60
2016,03,08,09,44,6.60
2016,03,08,09,45,6.60
2016,03,08,09,46,6.60
2016,03,08,09,47,6.60
2016,03,08,09,48,6.60
2016,03,08,09,49,6.60
2016,03,08,09,50,6.60
2016,03,08,09,51,6.60
2016,03,08,09,52,6.60
2016,03,08,09,53,6.60
2016,03,08,09,54,6.60
2016,03,08,09,55,6.60
2016,03,08,09,56,6.60
2016,03,08,09,57,6.60
2016,03,08,09,58,6.60
2016,03,08,09,59,6.60
2016,03,08,10,00,6.60
2016,03,08,10,01,6.60
2016,03,08,10,02,6.60
2016,03,08,10,03,6.60
2016,03,08,10,04,6.70
2016,03,08,10,05,6.70
2016,03,08,10,06,6.70
2016,03,08,10,07,6.70
2016,03,08,10,08,6.70
2016,03,08,10,09,6.70
2016,03,08,10,10,6.70
2016,03,08,10,11,6.70
2016,03,08,10,12,6.70
2016,03,08,10,13,6.80
2016,03,08,10,14,6.80
2016,03,08,10,15,6.80
2016,03,08,10,16,6.80
2016,03,08,10,17,6.80
2016,03,08,10,18,6.80
2016,03,08,10,19,6.80
2016,03,08,10,20,6.90
2016,03,08,10,21,6.80
2016,03,08,10,22,6.90
2016,03,08,10,23,6.90
2016,03,08,10,24,6.90
2016,03,08,10,25,6.90
2016,03,08,10,26,6.90
2016,03,08,10,27,6.90
2016,03,08,10,28,6.90
2016,03,08,10,29,6.90
2016,03,08,10,30,6.90
2016,03,08,10,31,6.90
2016,03,08,10,32,7.00
2016,03,08,10,33,7.00
2016,03,08,10,34,7.00
2016,03,08,10,35,7.00
2016,03,08,10,36,7.10
2016,03,08,10,37,7.10
2016,03,08,10,38,7.10
2016,03,08,10,39,7.10
2016,03,08,10,40,7.10
2016,03,08,10,41,7.10
2016,03,08,10,42,7.10
2016,03,08,10,43,7.10
2016,03,08,10,44,7.10
2016,03,08,10,45,7.10
2016,03,08,10,46,7.10
2016,03,08,10,47,7.10
2016,03,08,10,48,7.10
2016,03,08,10,49,7.10
2016,03,08,10,50,7.10
2016,03,08,10,51,7.10
2016,03,08,10,52,7.20
2016,03,08,10,53,7.20
2016,03,08,10,54,7.20
2016,03,08,10,55,7.20
2016,03,08,10,56,7.20
2016,03,08,10,57,7.20
2016,03,08,10,58,7.20
2016,03,08,10,59,7.20
2016,03,08,11,00,7.20
2016,03,08,11,01,7.20
2016,03,08,11,02,7.20
2016,03,08,11,03,7.20
2016,03,08,11,04,7.20
2016,03,08,11,05,7.20
2016,03,08,11,06,7.20
2016,03,08,11,07,7.20
2016,03,08,11,08,7.20
2016,03,08,11,09,7.20
2016,03,08,11,10,7.20
2016,03,08,11,11,7.20
2016,03,08,11,12,7.30
2016,03,08,11,13,7.30
2016,03,08,11,14,7.30
2016,03,08,11,15,7.30
2016,03,08,11,16,7.30
2016,03,08,11,17,7.30
2016,03,08,11,18,7.30
2016,03,08,11,19,7.30
2016,03,08,11,20,7.40
2016,03,08,11,21,7.40
2016,03,08,11,22,7.40
2016,03,08,11,23,7.40
2016,03,08,11,24,7.40
2016,03,08,11,25,7.50
2016,03,08,11,26,7.50
2016,03,08,11,27,7.50
2016,03,08,11,28,7.50
2016,03,08,11,29,7.50
2016,03,08,11,30,7.50
2016,03,08,11,31,7.50
2016,03,08,11,32,7.50
2016,03,08,11,33,7.50
2016,03,08,11,34,7.50
2016,03,08,11,35,7.50
2016,03,08,11,36,7.50
2016,03,08,11,37,7.50
2016,03,08,11,38,7.60
2016,03,08,11,39,7.60
2016,03,08,11,40,7.60
2016,03,08,11,41,7.60
2016,03,08,11,42,7.60
2016,03,08,11,43,7.60
2016,03,08,11,44,7.60
2016,03,08,11,45,7.60
2016,03,08,11,46,7.60
2016,03,08,11,47,7.60
2016,03,08,11,48,7.60
2016,03,08,11,49,7.70
2016,03,08,11,50,7.70
2016,03,08,11,51,7.70
2016,03,08,11,52,7.80
2016,03,08,11,53,7.80
2016,03,08,11,54,7.90
2016,03,08,11,55,7.90
2016,03,08,11,56,7.90
2016,03,08,11,57,8.00
2016,03,08,11,58,8.00
2016,03,08,11,59,8.10
2016,03,08,12,00,8.10
2016,03,08,12,01,8.20
2016,03,08,12,02,8.20
2016,03,08,12,03,8.20
2016,03,08,12,04,8.20
2016,03,08,12,05,8.30
2016,03,08,12,06,8.30
2016,03,08,12,07,8.30
2016,03,08,12,08,8.30
2016,03,08,12,09,8.30
2016,03,08,12,10,8.30
2016,03,08,12,11,8.20
2016,03,08,12,12,8.20
2016,03,08,12,13,8.20
2016,03,08,12,14,8.20
2016,03,08,12,15,8.20
2016,03,08,12,16,8.20
2016,03,08,12,17,8.20
2016,03,08,12,18,8.20
2016,03,08,12,19,8.20
2016,03,08,12,20,8.10
2016,03,08,12,21,8.10
2016,03,08,12,22,8.10
2016,03,08,12,23,8.10
2016,03,08,12,24,8.10
2016,03,08,12,25,8.10
2016,03,08,12,26,8.10
2016,03,08,12,27,8.10
2016,03,08,12,28,8.10
2016,03,08,12,29,8.10
2016,03,08,12,30,8.10
2016,03,08,12,31,8.10
2016,03,08,12,32,8.10
2016,03,08,12,33,8.10
2016,03,08,12,34,8.10
2016,03,08,12,35,8.10
2016,03,08,12,36,8.10
2016,03,08,12,37,8.10
2016,03,08,12,38,8.10
2016,03,08,12,39,8.00
2016,03,08,12,40,8.00
2016,03,08,12,41,8.00
2016,03,08,12,42,8.00
2016,03,08,12,43,8.00
2016,03,08,12,44,7.90
2016,03,08,12,45,7.90
2016,03,08,12,46,7.90
2016,03,08,12,47,7.90
2016,03,08,12,48,7.90
2016,03,08,12,49,7.90
2016,03,08,12,50,7.90
2016,03,08,12,51,7.90
2016,03,08,12,52,7.80
2016,03,08,12,53,7.80
2016,03,08,12,54,7.80
2016,03,08,12,55,7.80
2016,03,08,12,56,7.90
2016,03,08,12,57,7.90
2016,03,08,12,58,7.90
2016,03,08,12,59,7.90
2016,03,08,13,00,7.90
2016,03,08,13,01,7.90
2016,03,08,13,02,7.90
2016,03,08,13,03,7.80
2016,03,08,13,04,7.80
2016,03,08,13,05,7.80
2016,03,08,13,06,7.80
2016,03,08,13,07,7.80
2016,03,08,13,08,7.80
2016,03,08,13,09,7.80
2016,03,08,13,10,7.80
2016,03,08,13,11,7.80
2016,03,08,13,12,7.80
2016,03,08,13,13,7.80
2016,03,08,13,14,7.80
2016,03,08,13,15,7.80
2016,03,08,13,16,7.80
2016,03,08,13,17,7.80
2016,03,08,13,18,7.80
2016,03,08,13,19,7.80
2016,03,08,13,20,7.80
2016,03,08,13,21,7.80
2016,03,08,13,22,7.80
2016,03,08,13,23,7.80
2016,03,08,13,24,7.80
2016,03,08,13,25,7.80
2016,03,08,13,26,7.80
2016,03,08,13,27,7.90
2016,03,08,13,28,7.90
2016,03,08,13,29,7.90
2016,03,08,13,30,7.90
2016,03,08,13,31,7.90
2016,03,08,13,32,7.90
2016,03,08,13,33,7.90
2016,03,08,13,34,8.00
2016,03,08,13,35,8.00
2016,03,08,13,36,8.00
2016,03,08,13,37,8.00
2016,03,08,13,38,8.00
2016,03,08,13,39,8.10
2016,03,08,13,40,8.10
2016,03,08,13,41,8.10
2016,03,08,13,42,8.10
2016,03,08,13,43,8.10
2016,03,08,13,44,8.10
2016,03,08,13,45,8.10
2016,03,08,13,46,8.10
2016,03,08,13,47,8.10
2016,03,08,13,48,8.10
2016,03,08,13,49,8.10
2016,03,08,13,50,8.10
2016,03,08,13,51,8.10
2016,03,08,13,52,8.00
2016,03,08,13,53,8.00
2016,03,08,13,54,8.00
2016,03,08,13,55,7.90
2016,03,08,13,56,7.90
2016,03,08,13,57,7.90
2016,03,08,13,58,7.90
2016,03,08,13,59,7.80
2016,03,08,14,00,7.80
2016,03,08,14,01,7.80
2016,03,08,14,02,7.80
2016,03,08,14,03,7.80
2016,03,08,14,04,7.80
2016,03,08,14,05,7.80
2016,03,08,14,06,7.80
2016,03,08,14,07,7.80
2016,03,08,14,08,7.80
2016,03,08,14,09,7.80
2016,03,08,14,10,7.70
2016,03,08,14,11,7.70
2016,03,08,14,12,7.70
2016,03,08,14,13,7.70
2016,03,08,14,14,7.70
2016,03,08,14,15,7.70
2016,03,08,14,16,7.70
2016,03,08,14,17,7.70
2016,03,08,14,18,7.70
2016,03,08,14,19,7.70
2016,03,08,14,20,7.70
2016,03,08,14,21,7.70
2016,03,08,14,22,7.70
2016,03,08,14,23,7.70
2016,03,08,14,24,7.60
2016,03,08,14,25,7.60
2016,03,08,14,26,7.60
2016,03,08,14,27,7.60
2016,03,08,14,28,7.60
2016,03,08,14,29,7.60
2016,03,08,14,30,7.60
2016,03,08,14,31,7.60
2016,03,08,14,32,7.60
2016,03,08,14,33,7.60
2016,03,08,14,34,7.60
2016,03,08,14,35,7.60
2016,03,08,14,36,7.60
2016,03,08,14,37,7.60
2016,03,08,14,38,7.60
2016,03,08,14,39,7.60
2016,03,08,14,40,7.60
2016,03,08,14,41,7.50
2016,03,08,14,42,7.50
2016,03,08,14,43,7.50
2016,03,08,14,44,7.50
2016,03,08,14,45,7.50
2016,03,08,14,46,7.50
2016,03,08,14,47,7.50
2016,03,08,14,48,7.50
2016,03,08,14,49,7.50
2016,03,08,14,50,7.50
2016,03,08,14,51,7.50
2016,03,08,14,52,7.50
2016,03,08,14,53,7.50
2016,03,08,14,54,7.50
2016,03,08,14,55,7.50
2016,03,08,14,56,7.50
2016,03,08,14,57,7.50
2016,03,08,14,58,7.50
2016,03,08,14,59,7.50
2016,03,08,15,00,7.50
2016,03,08,15,01,7.50
2016,03,08,15,02,7.50
2016,03,08,15,03,7.50
2016,03,08,15,04,7.50
2016,03,08,15,05,7.50
2016,03,08,15,06,7.50
2016,03,08,15,07,7.50
2016,03,08,15,08,7.50
2016,03,08,15,09,7.50
2016,03,08,15,10,7.60
2016,03,08,15,11,7.60
2016,03,08,15,12,7.60
2016,03,08,15,13,7.60
2016,03,08,15,14,7.60
2016,03,08,15,15,7.60
2016,03,08,15,16,7.60
2016,03,08,15,17,7.60
2016,03,08,15,18,7.60
2016,03,08,15,19,7.60
2016,03,08,15,20,7.60
2016,03,08,15,21,7.60
2016,03,08,15,22,7.60
2016,03,08,15,23,7.60
2016,03,08,15,24,7.60
2016,03,08,15,25,7.60
2016,03,08,15,26,7.60
2016,03,08,15,27,7.60
2016,03,08,15,28,7.60
2016,03,08,15,29,7.60
2016,03,08,15,30,7.60
2016,03,08,15,31,7.60
2016,03,08,15,32,7.60
2016,03,08,15,33,7.60
2016,03,08,15,34,7.50
2016,03,08,15,35,7.50
2016,03,08,15,36,7.50
2016,03,08,15,37,7.50
2016,03,08,15,38,7.50
2016,03,08,15,39,7.50
2016,03,08,15,40,7.50
2016,03,08,15,41,7.50
2016,03,08,15,42,7.50
2016,03,08,15,43,7.50
2016,03,08,15,44,7.50
2016,03,08,15,45,7.50
2016,03,08,15,46,7.50
2016,03,08,15,47,7.50
2016,03,08,15,48,7.50
2016,03,08,15,49,7.40
2016,03,08,15,50,7.40
2016,03,08,15,51,7.40
2016,03,08,15,52,7.40
2016,03,08,15,53,7.40
2016,03,08,15,54,7.40
2016,03,08,15,55,7.40
2016,03,08,15,56,7.40
2016,03,08,15,57,7.40
2016,03,08,15,58,7.40
2016,03,08,15,59,7.40
2016,03,08,16,00,7.40
2016,03,08,16,01,7.40
2016,03,08,16,02,7.40
2016,03,08,16,03,7.40
2016,03,08,16,04,7.40
2016,03,08,16,05,7.40
2016,03,08,16,06,7.40
2016,03,08,16,07,7.40
2016,03,08,16,08,7.40
2016,03,08,16,09,7.40
2016,03,08,16,10,7.40
2016,03,08,16,11,7.40
2016,03,08,16,12,7.40
2016,03,08,16,13,7.40
2016,03,08,16,14,7.40
2016,03,08,16,15,7.40
2016,03,08,16,16,7.40
2016,03,08,16,17,7.40
2016,03,08,16,18,7.50
2016,03,08,16,19,7.50
2016,03,08,16,20,7.50
2016,03,08,16,21,7.50
2016,03,08,16,22,7.50
2016,03,08,16,23,7.50
2016,03,08,16,24,7.50
2016,03,08,16,25,7.50
2016,03,08,16,26,7.50
2016,03,08,16,27,7.50
2016,03,08,16,28,7.50
2016,03,08,16,29,7.50
2016,03,08,16,30,7.50
2016,03,08,16,31,7.50
2016,03,08,16,32,7.50
2016,03,08,16,33,7.50
2016,03,08,16,34,7.50
2016,03,08,16,35,7.40
2016,03,08,16,36,7.40
2016,03,08,16,37,7.40
2016,03,08,16,38,7.40
2016,03,08,16,39,7.40
2016,03,08,16,40,7.40
2016,03,08,16,41,7.40
2016,03,08,16,42,7.40
2016,03,08,16,43,7.40
2016,03,08,16,44,7.40
2016,03,08,16,45,7.40
2016,03,08,16,46,7.40
2016,03,08,16,47,7.40
2016,03,08,16,48,7.40
2016,03,08,16,49,7.40
2016,03,08,16,50,7.40
2016,03,08,16,51,7.40
2016,03,08,16,52,7.40
2016,03,08,16,53,7.40
2016,03,08,16,54,7.40
2016,03,08,16,55,7.40
2016,03,08,16,56,7.40
2016,03,08,16,57,7.40
2016,03,08,16,58,7.40
2016,03,08,16,59,7.40
2016,03,08,17,00,7.40
2016,03,08,17,01,7.40
2016,03,08,17,02,7.40
2016,03,08,17,03,7.40
2016,03,08,17,04,7.40
2016,03,08,17,05,7.50
2016,03,08,17,06,7.50
2016,03,08,17,07,7.50
2016,03,08,17,08,7.50
2016,03,08,17,09,7.50
2016,03,08,17,10,7.50
2016,03,08,17,11,7.50
2016,03,08,17,12,7.50
2016,03,08,17,13,7.50
2016,03,08,17,14,7.50
2016,03,08,17,15,7.50
2016,03,08,17,16,7.50
2016,03,08,17,17,7.50
2016,03,08,17,18,7.50
2016,03,08,17,19,7.50
2016,03,08,17,20,7.50
2016,03,08,17,21,7.50
2016,03,08,17,22,7.50
2016,03,08,17,23,7.50
2016,03,08,17,24,7.50
2016,03,08,17,25,7.50
2016,03,08,17,26,7.50
2016,03,08,17,27,7.50
2016,03,08,17,28,7.50
2016,03,08,17,29,7.50
2016,03,08,17,30,7.50
2016,03,08,17,31,7.50
2016,03,08,17,32,7.50
2016,03,08,17,33,7.50
2016,03,08,17,34,7.50
2016,03,08,17,35,7.50
2016,03,08,17,36,7.50
2016,03,08,17,37,7.50
2016,03,08,17,38,7.50
2016,03,08,17,39,7.50
2016,03,08,17,40,7.50
2016,03,08,17,41,7.40
2016,03,08,17,42,7.40
2016,03,08,17,43,7.40
2016,03,08,17,44,7.50
2016,03,08,17,45,7.50
2016,03,08,17,46,7.50
2016,03,08,17,47,7.50
2016,03,08,17,48,7.50
2016,03,08,17,49,7.50
2016,03,08,17,50,7.50
2016,03,08,17,51,7.50
2016,03,08,17,52,7.50
2016,03,08,17,53,7.50
2016,03,08,17,54,7.50
2016,03,08,17,55,7.50
2016,03,08,17,56,7.40
2016,03,08,17,57,7.40
2016,03,08,17,58,7.40
2016,03,08,17,59,7.40
2016,03,08,18,00,7.40
2016,03,08,18,01,7.40
2016,03,08,18,02,7.40
2016,03,08,18,03,7.40
2016,03,08,18,04,7.40
2016,03,08,18,05,7.40
2016,03,08,18,06,7.40
2016,03,08,18,07,7.40